Location: Binningen
(47.7924°N, 8.7261°E)
Time: 08:30:45
(UTC+00:00)

ISS - Pass Details

Date: 17 May 2021
Orbit: 417 x 422 km, 51.6° (Epoch: 20 June)

Event Time Altitude Azimuth Distance (km) Brightness Sun altitude
Rises 20:02:57 0° 235° (SW) 2,354 0.2 -9.4°
Reaches altitude 10° 20:05:03 10° 232° (SW) 1,495 -0.8 -9.6°
Maximum altitude 20:08:22 62° 151° (SSE) 476 -3.8 -10.0°
Drops below altitude 10° 20:11:42 10° 70° (ENE) 1,505 -1.2 -10.4°
Sets 20:13:49 0° 67° (ENE) 2,372 -0.2 -10.7°
